When you browse on this site, cookies collect data to enhance your experience and personalize the content and advertising you see.
Visit our Privacy Policy to learn more. By continuing to use the site, you agree to this use of cookies and data.
  • In Hungary
  • List of Countries
  • For 7 days
  • Water Temperature
  • Weather Map
  • News
  • Weather Widgets
  • user-avatar
    Login

    Hourly Weather Orlyanka

    Today, 26 August, Monday

    Time Temperature Precipitation Wind Pressure Humidity
    00:00 +12°C° 0 mm 1 mps 748 mmHg 90%
    01:00 +12°C° 0 mm 1 mps 748 mmHg 91%
    02:00 +12°C° 0 mm 1 mps 749 mmHg 91%
    03:00 +11°C° 0 mm 1 mps 749 mmHg 92%
    04:00 +11°C° 0 mm 1 mps 749 mmHg 93%
    05:00 +11°C° 0 mm 1 mps 749 mmHg 93%
    06:00 +13°C° 0 mm 1 mps 749 mmHg 87%
    07:00 +15°C° 0 mm 1 mps 749 mmHg 81%
    08:00 +18°C° 0 mm 1 mps 749 mmHg 75%
    09:00 +18°C° 0 mm 2 mps 748 mmHg 70%
    10:00 +20°C° 0 mm 2 mps 748 mmHg 65%
    11:00 +21°C° 0 mm 2 mps 748 mmHg 60%
    12:00 +21°C° 0 mm 2 mps 748 mmHg 59%
    13:00 +22°C° 0 mm 3 mps 748 mmHg 57%
    14:00 +22°C° 0 mm 3 mps 747 mmHg 56%
    15:00 +22°C° 0 mm 3 mps 747 mmHg 60%
    16:00 +21°C° 0 mm 2 mps 746 mmHg 65%
    17:00 +21°C° 0 mm 2 mps 746 mmHg 69%
    18:00 +19°C° 0 mm 2 mps 746 mmHg 75%
    19:00 +18°C° 0 mm 2 mps 745 mmHg 80%
    20:00 +16°C° 0 mm 2 mps 745 mmHg 86%
    21:00 +16°C° 0 mm 3 mps 745 mmHg 88%
    22:00 +16°C° 0 mm 3 mps 744 mmHg 89%
    23:00 +16°C° 0 mm 3 mps 744 mmHg 91%

    Tomorrow, 27 August, Tuesday

    Time Temperature Precipitation Wind Pressure Humidity
    00:00 +14°C° 0 mm 3 mps 744 mmHg 92%
    01:00 +14°C° 0 mm 3 mps 744 mmHg 94%
    02:00 +14°C° 0 mm 3 mps 744 mmHg 95%
    03:00 +14°C° 0 mm 3 mps 743 mmHg 96%
    04:00 +14°C° 0 mm 3 mps 743 mmHg 96%
    05:00 +14°C° 0 mm 3 mps 743 mmHg 97%
    06:00 +16°C° 0 mm 3 mps 743 mmHg 93%
    07:00 +17°C° 0 mm 3 mps 743 mmHg 89%
    08:00 +18°C° 0 mm 4 mps 743 mmHg 85%
    09:00 +19°C° 0 mm 4 mps 743 mmHg 77%
    10:00 +20°C° 0 mm 4 mps 743 mmHg 70%
    11:00 +22°C° 0 mm 5 mps 743 mmHg 62%
    12:00 +22°C° 0 mm 5 mps 744 mmHg 60%
    13:00 +22°C° 0 mm 5 mps 744 mmHg 59%
    14:00 +22°C° 0 mm 5 mps 744 mmHg 58%
    15:00 +21°C° 0 mm 4 mps 744 mmHg 61%
    16:00 +21°C° 0 mm 3 mps 744 mmHg 65%
    17:00 +20°C° 0 mm 3 mps 744 mmHg 68%
    18:00 +19°C° 0 mm 3 mps 744 mmHg 73%
    19:00 +17°C° 0 mm 3 mps 744 mmHg 77%
    20:00 +14°C° 0 mm 3 mps 744 mmHg 81%
    21:00 +14°C° 0 mm 2 mps 745 mmHg 85%
    22:00 +13°C° 0 mm 2 mps 745 mmHg 88%
    23:00 +13°C° 0 mm 2 mps 745 mmHg 91%

    Day after tomorrow, 28 August, Wednesday

    Time Temperature Precipitation Wind Pressure Humidity
    00:00 +12°C° 0 mm 2 mps 746 mmHg 92%
    01:00 +10°C° 0 mm 2 mps 746 mmHg 94%
    02:00 +10°C° 0 mm 2 mps 746 mmHg 96%
    03:00 +9°C° 0 mm 2 mps 746 mmHg 96%
    04:00 +9°C° 0 mm 2 mps 747 mmHg 96%
    05:00 +9°C° 0 mm 2 mps 747 mmHg 96%
    06:00 +10°C° 0 mm 2 mps 747 mmHg 89%
    07:00 +12°C° 0 mm 2 mps 747 mmHg 81%
    08:00 +13°C° 0 mm 3 mps 748 mmHg 73%
    09:00 +14°C° 0 mm 3 mps 748 mmHg 68%
    10:00 +16°C° 0 mm 3 mps 748 mmHg 63%
    11:00 +17°C° 0 mm 4 mps 748 mmHg 58%
    12:00 +17°C° 0 mm 4 mps 747 mmHg 56%
    13:00 +17°C° 0 mm 3 mps 747 mmHg 53%
    14:00 +18°C° 0 mm 3 mps 747 mmHg 51%
    15:00 +17°C° 0 mm 3 mps 747 mmHg 55%
    16:00 +17°C° 0 mm 2 mps 747 mmHg 59%
    17:00 +16°C° 0 mm 2 mps 747 mmHg 63%
    18:00 +15°C° 0 mm 2 mps 747 mmHg 65%
    19:00 +13°C° 0 mm 2 mps 748 mmHg 67%
    20:00 +10°C° 0 mm 2 mps 748 mmHg 69%
    21:00 +10°C° 0 mm 2 mps 748 mmHg 69%
    22:00 +9°C° 0 mm 2 mps 748 mmHg 69%
    23:00 +10°C° 0 mm 1 mps 748 mmHg 68%

    29 August, Thursday

    Time Temperature Precipitation Wind Pressure Humidity
    00:00 +9°C° 0 mm 1 mps 748 mmHg 69%
    01:00 +9°C° 0 mm 1 mps 748 mmHg 70%
    02:00 +8°C° 0 mm 1 mps 748 mmHg 71%
    03:00 +8°C° 0 mm 1 mps 749 mmHg 71%
    04:00 +8°C° 0 mm 1 mps 749 mmHg 71%
    05:00 +7°C° 0 mm 0 mps 749 mmHg 71%
    06:00 +9°C° 0 mm 0 mps 749 mmHg 65%
    07:00 +10°C° 0 mm 0 mps 749 mmHg 60%
    08:00 +12°C° 0 mm 0 mps 749 mmHg 55%
    09:00 +14°C° 0 mm 0 mps 749 mmHg 51%
    10:00 +16°C° 0 mm 0 mps 749 mmHg 48%
    11:00 +19°C° 0 mm 1 mps 748 mmHg 44%
    12:00 +20°C° 0 mm 1 mps 748 mmHg 45%
    13:00 +21°C° 0 mm 1 mps 748 mmHg 47%
    14:00 +21°C° 0 mm 1 mps 747 mmHg 48%
    15:00 +19°C° 0 mm 0 mps 747 mmHg 53%
    16:00 +19°C° 0 mm 0 mps 747 mmHg 59%
    17:00 +18°C° 0 mm 0 mps 747 mmHg 64%
    18:00 +16°C° 0 mm 0 mps 746 mmHg 69%
    19:00 +14°C° 0 mm 0 mps 746 mmHg 73%
    20:00 +12°C° 0 mm 0 mps 746 mmHg 77%
    21:00 +12°C° 0 mm 1 mps 746 mmHg 79%
    22:00 +12°C° 0 mm 1 mps 746 mmHg 80%
    23:00 +12°C° 0 mm 1 mps 746 mmHg 81%

    30 August, Friday

    Time Temperature Precipitation Wind Pressure Humidity
    00:00 +11°C° 0 mm 1 mps 746 mmHg 82%
    01:00 +11°C° 0 mm 1 mps 745 mmHg 83%
    02:00 +11°C° 0 mm 1 mps 745 mmHg 83%
    03:00 +10°C° 0 mm 1 mps 745 mmHg 84%
    04:00 +10°C° 0 mm 1 mps 745 mmHg 85%
    05:00 +10°C° 0 mm 1 mps 745 mmHg 85%
    06:00 +11°C° 0 mm 1 mps 745 mmHg 80%
    07:00 +13°C° 0 mm 1 mps 745 mmHg 74%
    08:00 +15°C° 0 mm 1 mps 745 mmHg 68%
    09:00 +18°C° 0 mm 1 mps 745 mmHg 63%
    10:00 +19°C° 0 mm 1 mps 745 mmHg 58%
    11:00 +21°C° 0 mm 1 mps 745 mmHg 53%
    12:00 +21°C° 0 mm 1 mps 745 mmHg 52%
    13:00 +22°C° 0 mm 1 mps 745 mmHg 51%
    14:00 +22°C° 0 mm 1 mps 744 mmHg 51%
    15:00 +22°C° 0 mm 1 mps 744 mmHg 56%
    16:00 +21°C° 0 mm 1 mps 744 mmHg 61%
    17:00 +21°C° 0 mm 1 mps 744 mmHg 66%
    18:00 +19°C° 0 mm 1 mps 744 mmHg 71%
    19:00 +16°C° 0 mm 1 mps 744 mmHg 76%
    20:00 +14°C° 0 mm 1 mps 744 mmHg 81%
    21:00 +14°C° 0 mm 1 mps 744 mmHg 83%
    22:00 +13°C° 0 mm 1 mps 744 mmHg 84%
    23:00 +13°C° 0 mm 1 mps 744 mmHg 86%

    31 August, Saturday

    Time Temperature Precipitation Wind Pressure Humidity
    00:00 +12°C° 0 mm 1 mps 744 mmHg 87%
    01:00 +12°C° 0 mm 1 mps 744 mmHg 89%
    02:00 +12°C° 0 mm 1 mps 744 mmHg 90%
    03:00 +11°C° 0 mm 1 mps 744 mmHg 90%
    04:00 +11°C° 0 mm 1 mps 743 mmHg 90%
    05:00 +11°C° 0 mm 1 mps 743 mmHg 90%
    06:00 +12°C° 0 mm 2 mps 743 mmHg 84%
    07:00 +14°C° 0 mm 2 mps 743 mmHg 78%
    08:00 +15°C° 0 mm 2 mps 743 mmHg 73%
    09:00 +17°C° 0 mm 2 mps 743 mmHg 67%
    10:00 +18°C° 0 mm 2 mps 743 mmHg 61%
    11:00 +20°C° 0 mm 2 mps 743 mmHg 55%
    12:00 +20°C° 0 mm 2 mps 743 mmHg 54%
    13:00 +21°C° 0 mm 3 mps 743 mmHg 53%
    14:00 +21°C° 0 mm 3 mps 742 mmHg 52%
    15:00 +21°C° 0 mm 2 mps 742 mmHg 57%
    16:00 +20°C° 0 mm 2 mps 742 mmHg 62%
    17:00 +19°C° 0 mm 2 mps 742 mmHg 67%
    18:00 +17°C° 0 mm 2 mps 742 mmHg 74%
    19:00 +16°C° 0 mm 2 mps 741 mmHg 80%
    20:00 +14°C° 0 mm 2 mps 741 mmHg 87%
    21:00 +13°C° 0 mm 2 mps 741 mmHg 88%
    22:00 +13°C° 0 mm 2 mps 741 mmHg 89%
    23:00 +13°C° 0 mm 2 mps 741 mmHg 90%
    Show more